Newport, RI

2:16 PM EDT on September 21, 2019 (GMT -0400)
Newport State

Weather History for KUUU - July, 2019

Change the Weather History Date:

Friday, July 19, 2019

  Actual Average Record
Temperature  
Mean Temperature 73 °F -  
Max Temperature 82 °F 79 °F 90 °F (1977)
Min Temperature 66 °F 65 °F 58 °F (1985)
Cooling Degree Days 8    
Growing Degree Days 23 (Base 50)    
Moisture  
Dew Point 68 °F    
Average Humidity 89    
Maximum Humidity 97    
Minimum Humidity 71    
Precipitation  
Precipitation 0.01 in - - ()
Sea Level Pressure  
Sea Level Pressure 29.87 in    
Wind  
Wind Speed 6 mph (NW)    
Max Wind Speed 12 mph    
Max Gust Speed 22 mph    
Visibility 7 miles    
Events Rain    
Averages and records for this station are not official NWS values.
T = Trace of Precipitation, MM = Missing Value Source: NWS Daily Summary

Daily Weather History Graph

Daily Weather History Graph

Search for Another Location

Airport or City:

Astronomy

Jul. 19, 2019 Rise Set
Actual Time 5:27 AM EDT 8:14 PM EDT
Civil Twilight 4:54 AM EDT 8:47 PM EDT
Nautical Twilight 4:13 AM EDT 9:28 PM EDT
Astronomical Twilight 3:26 AM EDT 10:15 PM EDT
Moon 10:09 PM EDT (7/19) 7:52 AM EDT (7/19)
Length of Visible Light 15h 52m
Length of Day
14h 47m
Waning Gibbous, 93% of the Moon is Illuminated
Jul 19
Waning Gibbous
Jul 24
Last Quarter
Jul 31
New
Aug 7
First Quarter
Aug 15
Full

Hourly Weather History & Observations

Time (EDT) Temp. Heat Index Dew Point Humidity Pressure Visibility Wind Dir Wind Speed Gust Speed Precip Events Conditions
12:53 AM 66.9 °F - 64.9 °F 93% 29.90 in 6.0 mi North 4.6 mph - 0.00 in Rain Light Rain
1:07 AM 66.9 °F - 64.9 °F 93% 29.90 in 6.0 mi North 5.8 mph - 0.00 in   Overcast
1:53 AM 66.9 °F - 64.9 °F 93% 29.88 in 4.0 mi North 8.1 mph - 0.00 in Rain Light Rain
2:53 AM 66.0 °F - 64.9 °F 96% 29.88 in 4.0 mi North 5.8 mph - 0.00 in   Overcast
3:53 AM 66.0 °F - 64.9 °F 96% 29.88 in 3.0 mi NNW 3.5 mph - N/A   Overcast
4:07 AM 66.0 °F - 64.9 °F 96% 29.88 in 2.5 mi NNW 5.8 mph - 0.00 in Rain Light Rain
4:20 AM 66.0 °F - 64.9 °F 96% 29.88 in 3.0 mi North 5.8 mph - 0.00 in   Overcast
4:53 AM 66.0 °F - 64.9 °F 96% 29.87 in 6.0 mi North 5.8 mph - 0.01 in   Overcast
5:38 AM 66.0 °F - 64.9 °F 96% 29.89 in 9.0 mi NNW 6.9 mph - N/A   Overcast
5:53 AM 66.0 °F - 64.9 °F 96% 29.88 in 8.0 mi North 5.8 mph - N/A   Overcast
6:53 AM 66.9 °F - 64.9 °F 93% 29.91 in 8.0 mi North 4.6 mph - N/A   Overcast
7:13 AM 66.9 °F - 64.9 °F 93% 29.91 in 7.0 mi NNW 6.9 mph - N/A   Overcast
7:46 AM 68.0 °F - 66.0 °F 93% 29.90 in 10.0 mi North 6.9 mph - N/A   Overcast
7:53 AM 68.0 °F - 64.9 °F 90% 29.90 in 10.0 mi NNW 6.9 mph - N/A   Overcast
8:12 AM 68.0 °F - 64.9 °F 90% 29.90 in 10.0 mi North 4.6 mph - N/A   Overcast
8:53 AM 69.1 °F - 64.9 °F 87% 29.90 in 10.0 mi NNW 4.6 mph - N/A   Overcast
9:53 AM 73.9 °F - 68.0 °F 82% 29.90 in 10.0 mi Calm Calm - N/A   Overcast
10:19 AM 75.9 °F - 69.1 °F 79% 29.90 in 10.0 mi Calm Calm - N/A   Scattered Clouds
10:53 AM 75.9 °F - 69.1 °F 79% 29.89 in 10.0 mi SW 3.5 mph - N/A   Clear
11:53 AM 78.1 °F - 70.0 °F 76% 29.88 in 10.0 mi Variable 4.6 mph - N/A   Clear
12:53 PM 79.0 °F - 71.1 °F 77% 29.87 in 10.0 mi South 8.1 mph - N/A   Clear
1:53 PM 80.1 °F 83.2 °F 70.0 °F 71% 29.86 in 10.0 mi SSW 8.1 mph - N/A   Clear
2:53 PM 80.1 °F 83.2 °F 70.0 °F 71% 29.84 in 10.0 mi South 11.5 mph - N/A   Clear
3:53 PM 77.0 °F - 71.1 °F 82% 29.84 in 10.0 mi SSW 11.5 mph 21.9 mph N/A   Clear
4:53 PM 75.9 °F - 71.1 °F 85% 29.83 in 10.0 mi SSW 9.2 mph 21.9 mph N/A   Clear
5:53 PM 77.0 °F - 71.1 °F 82% 29.82 in 10.0 mi SSW 8.1 mph - N/A   Clear
6:53 PM 75.9 °F - 72.0 °F 87% 29.82 in 7.0 mi SSW 6.9 mph - N/A   Clear
7:53 PM 75.0 °F - 72.0 °F 90% 29.81 in 4.0 mi SSW 8.1 mph - N/A   Clear
8:53 PM 75.0 °F - 73.0 °F 94% 29.82 in 5.0 mi Variable 4.6 mph - N/A   Clear
9:53 PM 73.9 °F - 73.0 °F 97% 29.83 in 4.0 mi Variable 3.5 mph - N/A   Clear
10:53 PM 73.9 °F - 73.0 °F 97% 29.83 in 4.0 mi Variable 3.5 mph - N/A   Partly Cloudy
11:53 PM 75.0 °F - 73.9 °F 96% 29.81 in 4.0 mi SSW 4.6 mph - N/A   Clear